DW8199 Weather Reports


Display with metric or nautical units.
time (UTC)temp
F
wind
direction
speed
MPH
gust
MPH
rain 1hr
in
rain 24hr
in
rain mn
in
humidity
%
barometer
mb
20260904223036 78 0.0 0.0 0.00 0.36 0.36 86 1015.1
20260904222016 78 0.0 0.0 0.00 0.36 0.36 86 1014.9
20260904221016 79 0.0 0.0 0.00 0.36 0.36 85 1014.8
20260904220016 79 116 0.0 1.0 0.00 0.36 0.36 82 1014.6
20260904215056 79 0.0 0.0 0.00 0.36 0.36 83 1014.5
20260904214016 80 265 0.0 1.0 0.00 0.36 0.36 80 1014.2
20260904213016 80 133 0.0 3.0 0.00 0.36 0.36 80 1013.8
20260904212016 80 246 0.0 2.0 0.00 0.36 0.36 82 1013.8
20260904211016 80 233 0.0 1.0 0.00 0.36 0.36 82 1014.0
20260904210016 80 203 0.0 1.0 0.00 0.36 0.36 82 1014.4
20260904205017 80 117 0.0 1.0 0.00 0.36 0.36 81 1014.7
20260904204016 80 228 0.0 2.0 0.00 0.36 0.36 80 1014.7
20260904203016 79 0.0 2.0 0.00 0.36 0.36 82 1014.7
20260904202016 79 0.0 0.0 0.00 0.36 0.36 82 1014.8
20260904201016 80 144 0.0 1.0 0.00 0.36 0.36 81 1015.0
20260904200036 79 270 0.0 1.0 0.00 0.36 0.36 80 1015.4
20260904195037 79 265 0.0 2.0 0.00 0.36 0.36 81 1015.2
20260904194016 79 111 0.0 2.0 0.00 0.36 0.36 81 1015.1
20260904193017 79 206 0.0 2.0 0.00 0.36 0.36 81 1015.3
20260904192016 79 0.0 2.0 0.00 0.36 0.36 82 1015.5
20260904191016 79 164 0.0 4.0 0.00 0.36 0.36 82 1016.0
20260904190056 78 244 0.0 5.0 0.00 0.36 0.36 83 1016.3
20260904185016 78 279 2.0 6.0 0.00 0.36 0.36 83 1016.7
20260904184016 78 273 2.0 7.0 0.00 0.36 0.36 83 1016.9
20260904183017 78 273 1.0 5.0 0.00 0.36 0.36 84 1017.1
20260904182036 79 288 1.0 4.0 0.02 0.36 0.36 85 1017.3
20260904181016 77 278 2.0 6.0 0.02 0.36 0.36 86 1017.2
20260904180036 77 280 2.0 5.0 0.02 0.36 0.36 87 1017.3
20260904175016 76 267 0.0 2.0 0.02 0.36 0.36 89 1017.4
20260904174016 76 246 0.0 3.0 0.02 0.36 0.36 89 1017.7
20260904173015 76 281 1.0 6.0 0.02 0.36 0.36 91 1017.6
20260904172016 77 271 1.0 5.0 0.00 0.34 0.34 92 1017.5
20260904171016 77 285 0.0 3.0 0.00 0.34 0.34 92 1017.4
20260904170017 77 288 0.0 4.0 0.00 0.34 0.34 92 1017.3
20260904165016 77 269 2.0 4.0 0.00 0.34 0.34 92 1017.2
20260904164015 76 278 1.0 4.0 0.00 0.34 0.34 93 1016.7
20260904163016 77 205 0.0 1.0 0.00 0.34 0.34 93 1016.7
20260904162016 75 206 0.0 2.0 0.00 0.34 0.34 93 1016.7
20260904161016 75 165 0.0 3.0 0.00 0.34 0.34 93 1016.7
20260904160036 75 0.0 0.0 0.00 0.34 0.34 93 1016.8
20260904155016 74 0.0 0.0 0.00 0.34 0.34 93 1016.9
20260904154016 74 113 0.0 1.0 0.00 0.34 0.34 93 1017.3
20260904153016 74 0.0 0.0 0.00 0.34 0.34 93 1017.3
20260904152017 73 114 0.0 1.0 0.00 0.34 0.34 93 1017.3
20260904151015 73 252 0.0 1.0 0.00 0.34 0.34 93 1017.4
20260904150036 73 276 1.0 3.0 0.00 0.34 0.34 93 1017.9
20260904145056 73 0.0 0.0 0.00 0.34 0.34 93 1017.4
20260904144015 73 0.0 0.0 0.00 0.34 0.34 93 1017.3
20260904143015 73 0.0 2.0 0.00 0.34 0.34 93 1017.1
20260904142015 73 236 0.0 2.0 0.00 0.34 0.34 93 1017.1
20260904141015 72 135 0.0 1.0 0.00 0.34 0.34 93 1016.6
20260904140015 72 0.0 0.0 0.00 0.34 0.34 93 1016.4
20260904135016 72 136 0.0 3.0 0.00 0.34 0.34 93 1016.4
20260904134016 72 0.0 0.0 0.00 0.34 0.34 93 1016.7
20260904133036 71 0.0 0.0 0.00 0.34 0.34 93 1016.4
20260904132016 71 269 0.0 1.0 0.00 0.34 0.34 93 1016.5
20260904131015 71 270 0.0 1.0 0.00 0.34 0.34 93 1016.4
20260904130015 70 0.0 1.0 0.00 0.34 0.34 93 1016.6
20260904125036 70 0.0 0.0 0.00 0.34 0.34 93 1016.7
20260904124015 69 0.0 0.0 0.00 0.34 0.34 93 1016.7
20260904123015 69 0.0 0.0 0.00 0.34 0.34 93 1016.7
20260904122015 69 0.0 0.0 0.00 0.34 0.34 93 1016.8
20260904121036 69 0.0 0.0 0.00 0.34 0.34 93 1017.0
20260904120015 68 0.0 0.0 0.00 0.34 0.34 93 1016.9
20260904115035 68 0.0 0.0 0.00 0.34 0.34 93 1016.8
20260904114015 68 0.0 0.0 0.00 0.34 0.34 93 1016.7
20260904113015 68 0.0 0.0 0.00 0.34 0.34 93 1016.6
20260904112035 68 0.0 0.0 0.00 0.34 0.34 93 1016.4
20260904111015 68 0.0 0.0 0.00 0.34 0.34 93 1016.2
20260904110036 68 0.0 0.0 0.00 0.34 0.34 93 1016.1
20260904105015 68 0.0 0.0 0.00 0.34 0.34 93 1016.1
20260904104015 68 0.0 0.0 0.00 0.34 0.34 93 1016.1
20260904103015 68 0.0 1.0 0.00 0.34 0.34 93 1016.2
20260904102015 68 271 0.0 1.0 0.00 0.34 0.34 93 1016.2
20260904101016 69 0.0 1.0 0.00 0.34 0.34 93 1016.3
20260904100015 69 271 0.0 1.0 0.00 0.34 0.34 93 1016.2
20260904095015 69 0.0 0.0 0.00 0.34 0.34 93 1016.5
20260904094016 69 271 0.0 1.0 0.00 0.34 0.34 93 1016.5
20260904093015 69 0.0 0.0 0.00 0.34 0.34 93 1016.3
20260904092015 69 0.0 0.0 0.00 0.34 0.34 93 1016.2
20260904091016 69 0.0 0.0 0.00 0.34 0.34 93 1016.1
20260904090015 69 0.0 0.0 0.01 0.34 0.34 93 1016.1
20260904085015 69 0.0 1.0 0.02 0.34 0.34 93 1016.2
20260904084015 69 270 0.0 1.0 0.03 0.34 0.34 93 1016.2
20260904083015 69 0.0 0.0 0.03 0.34 0.34 93 1016.3
20260904082015 69 0.0 0.0 0.03 0.34 0.34 93 1016.4
20260904081015 69 0.0 0.0 0.04 0.34 0.34 92 1016.4
20260904080015 69 270 0.0 2.0 0.28 0.33 0.33 92 1016.4
20260904075015 69 104 0.0 3.0 0.32 0.32 0.32 92 1016.8
20260904074016 69 219 1.0 2.0 0.31 0.31 0.31 92 1017.0
20260904073015 69 215 0.0 1.0 0.31 0.31 0.31 92 1017.4
20260904072056 70 308 1.0 2.0 0.31 0.31 0.31 91 1016.7
20260904071015 70 53 1.0 6.0 0.30 0.30 0.30 90 1016.4
20260904070015 71 237 1.0 4.0 0.05 0.05 0.05 89 1017.2
20260904065016 71 107 0.0 1.0 0.00 0.00 0.00 89 1016.6
20260904064035 71 107 0.0 2.0 0.00 0.00 0.00 88 1016.7
20260904063015 71 0.0 1.0 0.00 0.00 0.00 88 1016.6
20260904062015 71 147 0.0 1.0 0.00 0.00 0.00 88 1016.7
20260904061015 71 0.0 1.0 0.00 0.00 0.00 88 1017.0
20260904060015 71 125 0.0 1.0 0.00 0.00 0.00 88 1017.2
20260904055016 71 131 0.0 2.0 0.00 0.00 0.00 88 1017.0
20260904054015 71 0.0 0.0 0.00 0.00 0.00 89 1016.6
20260904053015 70 0.0 0.0 0.00 0.00 0.00 88 1016.2
20260904052035 70 0.0 0.0 0.00 0.00 0.00 89 1016.2
20260904051015 70 0.0 0.0 0.00 0.00 0.00 88 1016.1
20260904050015 70 0.0 0.0 0.00 0.00 0.00 88 1016.0
20260904045015 70 0.0 0.0 0.00 0.00 0.00 88 1015.9
20260904044015 70 0.0 0.0 0.00 0.00 0.00 88 1016.0
20260904043015 71 0.0 0.0 0.00 0.00 0.00 88 1016.2
20260904042015 71 0.0 0.0 0.00 0.00 0.00 87 1016.1
20260904041016 71 0.0 0.0 0.00 0.00 0.00 87 1016.1
20260904040015 71 0.0 1.0 0.00 0.00 0.00 86 1016.0
20260904035017 71 266 1.0 2.0 0.00 0.00 0.00 86 1016.1
20260904034017 71 241 0.0 2.0 0.00 0.00 0.00 86 1016.1
20260904033016 72 262 0.0 2.0 0.00 0.00 0.00 86 1016.3
20260904032016 72 251 0.0 4.0 0.00 0.00 0.00 86 1016.4
20260904031017 71 253 1.0 4.0 0.00 0.00 0.00 86 1016.3
20260904030036 71 250 1.0 5.0 0.00 0.00 0.00 87 1016.3
20260904025017 71 236 1.0 5.0 0.00 0.00 0.00 87 1016.3
20260904024016 71 229 2.0 5.0 0.00 0.00 0.00 88 1016.4
20260904023016 71 238 1.0 3.0 0.00 0.00 0.00 88 1016.7
20260904022016 71 229 1.0 3.0 0.00 0.00 0.00 88 1016.8
20260904021016 71 245 1.0 4.0 0.00 0.00 0.00 88 1017.0
20260904020037 71 227 1.0 4.0 0.00 0.00 0.00 88 1016.9
20260904015017 71 209 1.0 7.0 0.00 0.00 0.00 87 1017.2
20260904014016 71 235 1.0 7.0 0.00 0.00 0.00 87 1017.3
20260904013038 72 240 0.0 2.0 0.00 0.00 0.00 86 1017.0
20260904012016 72 186 1.0 3.0 0.00 0.00 0.00 86 1016.9
20260904011017 72 202 0.0 1.0 0.00 0.00 0.00 85 1016.3
20260904010016 73 278 1.0 3.0 0.00 0.00 0.00 85 1016.2
20260904005016 73 266 1.0 2.0 0.00 0.00 0.00 84 1016.4
20260904004016 73 254 1.0 5.0 0.00 0.00 0.00 84 1017.0
20260904003016 74 177 0.0 7.0 0.00 0.00 0.00 83 1017.0
20260904002016 75 150 1.0 5.0 0.00 0.00 0.00 80 1016.8
20260904001036 76 126 1.0 12.0 0.00 0.00 0.00 78 1017.0
20260904000016 78 255 2.0 7.0 0.00 0.00 0.00 75 1017.0
20260903235017 80 140 3.0 12.0 0.00 0.00 0.00 72 1017.1
20260903234016 83 282 5.0 11.0 0.00 0.00 0.00 74 1016.4
20260903233016 82 284 0.0 2.0 0.00 0.00 0.00 77 1015.5
20260903232017 82 0.0 0.0 0.00 0.00 0.00 78 1015.1
20260903231016 83 0.0 0.0 0.00 0.00 0.00 77 1015.0
20260903230016 83 94 0.0 1.0 0.00 0.00 0.00 76 1014.7
20260903225016 83 92 0.0 2.0 0.00 0.00 0.00 76 1014.5
20260903224037 84 99 1.0 2.0 0.00 0.00 0.00 74 1014.7